RH
5 5 4 6 6 7 7 8 6 5 5 7 11 17 9 5 5 5 6 6 10 50 55 44 60 71 70 60 78 94 72 54 35 37 44 69 66 55 47 42 53 54 57 54 53 33 34 28 25
9 7 7 6 5 4 5 5 5 8 7 7 7 7 6 5 6 5 6 4 4 8 31 28 42 51 64 86 72 67 89 91 52 34 42 51 72 71 50 34 26 29 38 56 66 38 31 11 10
15 16 15 15 12 10 8 6 5 4 3 3 4 6 7 7 7 7 7 7 7 6 6 9 38 58 52 47 83 75 60 79 94 79 46 44 50 68 86 42 25 21 21 29 53 39 22 11 7
13 15 16 14 13 13 15 14 13 14 11 10 7 5 4 4 4 4 5 4 4 6 7 7 12 25 40 59 54 75 78 72 60 89 93 78 52 55 79 93 69 36 27 24 25 18 18 12 7
11 12 13 13 12 14 14 16 15 16 19 21 19 17 14 11 8 6 5 4 4 4 4 4 6 10 21 28 40 60 66 80 81 71 85 83 84 66 60 68 80 76 50 46 45 14 9 8 10
14 13 13 13 11 11 15 16 18 17 17 18 18 16 18 22 21 19 14 12 10 8 6 4 4 4 6 10 19 30 41 60 69 82 84 81 77 68 73 70 66 69 63 56 55 26 15 8 9
21 18 15 14 11 10 14 23 24 26 26 25 21 20 21 24 27 28 27 26 26 23 18 14 10 6 4 4 5 10 21 32 45 53 57 60 70 75 69 74 79 66 59 53 50 50 29 23 11
20 19 18 19 23 17 16 20 23 30 30 30 29 26 23 25 24 23 23 22 23 24 26 28 28 19 14 8 5 4 5 10 34 42 45 43 48 56 74 75 63 62 46 43 40 42 48 44 29
20 19 21 24 26 28 27 25 25 32 34 33 31 30 29 28 27 26 26 26 25 24 25 26 26 29 31 26 17 12 7 4 5 18 43 50 47 46 48 56 71 67 56 37 30 25 36 32 46
26 26 31 32 30 28 29 30 29 30 28 24 20 20 20 21 22 22 25 27 28 29 29 29 29 30 29 30 32 31 20 14 8 4 7 29 49 54 57 56 56 68 73 59 27 17 15 25 25
18 20 20 19 18 17 18 17 15 15 14 15 15 16 17 16 15 15 16 18 21 22 22 27 33 37 36 35 35 35 36 35 21 13 6 4 15 39 50 58 59 57 76 89 64 32 23 21 24
14 15 16 16 15 14 14 13 12 8 6 6 7 6 6 6 6 7 8 10 12 17 21 23 24 30 36 40 43 40 40 42 44 32 19 10 5 8 33 52 59 64 62 76 91 81 35 17 20
15 16 15 13 10 10 8 8 8 7 7 6 6 6 6 5 5 6 6 6 6 7 7 9 14 20 25 31 38 47 47 44 44 46 39 28 14 7 6 27 42 58 70 64 83 99 88 43 20
18 18 18 18 17 14 12 10 9 9 8 8 7 6 6 8 9 9 9 9 8 8 7 6 6 6 8 14 25 32 42 51 49 45 44 45 36 20 9 6 13 24 49 81 100 93 96 93 49
17 17 17 15 13 12 11 11 11 10 9 8 7 7 8 10 11 11 10 10 9 8 7 6 6 6 7 6 9 17 26 36 47 53 48 44 48 39 25 12 6 7 10 92 86 97 96 98 92
16 15 14 13 12 11 10 8 7 7 7 8 9 11 13 12 11 10 9 8 7 7 8 7 6 7 9 13 11 12 19 24 31 41 50 52 47 43 41 30 15 9 7 8 39 97 91 96 95
18 16 14 12 10 7 8 7 8 10 10 8 8 9 11 10 11 10 8 7 6 6 6 6 7 8 10 12 15 15 17 20 22 27 36 46 52 48 41 40 34 19 12 8 28 16 94 96 99
14 16 15 14 11 11 11 12 13 12 9 8 8 10 10 10 8 7 6 5 5 5 5 5 5 6 7 10 11 14 17 18 16 15 22 32 42 50 48 42 41 36 22 12 10 46 33 96 96
17 16 16 17 16 17 18 15 12 10 9 9 10 11 10 8 6 5 5 5 4 4 4 4 4 4 4 5 7 9 12 14 14 14 12 17 26 39 47 48 43 39 39 24 13 13 85 83 96
30 28 22 20 22 20 17 15 12 11 11 11 11 9 7 6 5 5 4 4 4 4 4 4 4 4 4 4 4 4 6 8 10 11 10 11 13 20 34 44 48 43 40 43 24 13 15 19 25
31 24 23 24 21 18 16 13 12 12 11 10 9 7 6 5 5 4 4 4 4 4 4 4 4 4 4 4 4 4 4 5 6 7 8 8 10 11 16 29 43 47 44 46 43 24 14 14 29
29 29 27 22 18 17 16 13 13 11 10 8 6 6 5 4 5 5 6 6 8 11 12 12 10 10 9 8 5 4 4 4 4 5 6 6 7 8 10 12 24 41 47 47 52 44 18 17 25
31 27 22 21 20 16 16 14 11 10 7 6 6 5 5 6 6 7 10 15 18 18 17 16 15 15 14 14 13 10 6 5 4 4 4 5 6 6 8 9 10 20 39 47 50 53 43 24 20
29 28 25 22 18 17 15 14 11 8 6 6 5 5 6 6 14 19 23 26 27 27 26 24 23 23 21 18 15 12 12 9 6 5 5 5 5 5 6 7 8 9 18 39 49 52 55 36 34
31 29 27 22 20 19 16 13 8 7 6 6 6 7 9 23 29 32 33 32 33 32 30 25 21 20 22 24 21 15 14 13 10 8 5 5 5 5 5 5 7 8 7 16 38 51 55 55 42
33 30 28 25 22 19 15 9 7 7 7 7 8 9 22 35 37 38 34 31 28 28 27 21 17 18 21 24 30 23 20 12 14 12 10 7 5 5 5 5 5 6 7 6 15 39 54 55 54
35 32 28 24 22 17 11 8 7 8 8 7 7 14 39 38 40 31 36 43 44 43 42 41 40 38 36 36 33 30 26 20 13 16 13 11 8 6 5 4 5 5 6 6 6 15 43 57 54
38 33 28 25 19 12 10 8 8 7 6 7 9 30 38 39 39 40 47 46 43 30 20 17 18 28 40 43 41 41 39 30 23 21 19 14 12 9 6 4 4 4 5 6 6 5 17 47 60
39 35 31 24 14 11 8 7 8 7 8 8 20 38 38 38 33 40 50 41 14 13 22 37 44 45 47 54 53 51 51 44 31 27 25 20 15 10 8 6 4 4 4 4 5 5 5 11 51
41 35 28 19 12 9 8 7 9 9 8 14 24 34 35 42 42 53 42 15 15 50 57 49 42 44 55 62 64 64 61 57 45 34 24 24 19 13 10 9 7 4 3 4 4 5 5 5 9
Wind_Speed
10 8 7 4 4 7 6 9 7 3 5 12 13 12 13 14 14 16 17 16 18 19 23 24 22 24 26 25 27 28 28 27 28 27 25 24 23 24 22 21 20 19 18 18 19 19 18 18 18
12 12 11 10 10 6 5 4 2 6 11 14 12 13 13 13 15 15 14 15 17 19 22 22 23 23 24 25 24 26 30 28 28 29 28 27 26 24 24 23 23 22 21 20 21 20 20 20 20
12 13 14 15 14 13 9 10 9 8 8 11 14 12 12 14 17 18 18 20 21 19 21 21 21 25 24 25 28 24 27 32 29 26 29 29 29 28 26 24 24 24 23 22 22 22 22 21 20
13 13 14 16 16 15 15 17 16 14 14 15 18 19 16 17 16 15 17 19 20 21 22 25 25 26 28 28 29 29 30 28 31 32 27 28 30 32 30 27 26 27 26 26 25 24 24 23 21
14 16 15 17 17 15 18 16 19 19 20 19 21 20 20 20 21 23 24 23 25 23 24 25 27 29 29 29 29 29 30 33 33 32 32 29 30 32 34 32 29 30 28 29 27 25 25 26 24
14 15 18 18 20 17 17 18 20 22 25 26 26 27 26 26 27 28 29 30 30 30 31 31 30 30 31 31 29 30 33 33 34 37 37 37 33 30 34 35 33 33 31 30 29 28 26 27 27
14 17 19 20 22 19 18 19 23 25 28 31 30 30 31 33 33 33 35 35 35 35 35 37 37 37 37 36 35 33 32 34 36 36 37 37 39 39 32 35 36 36 35 34 33 30 28 28 28
15 16 20 22 25 25 24 24 26 30 28 30 33 31 32 34 37 38 39 41 42 42 43 42 42 42 43 42 42 41 39 37 36 37 38 40 39 39 41 41 35 39 38 37 37 35 33 31 29
15 17 19 24 26 28 28 29 30 30 30 31 35 37 36 36 39 41 43 44 45 47 47 48 49 49 49 48 47 47 46 44 43 40 39 40 41 41 40 42 44 38 40 41 41 40 38 37 34
19 20 22 25 26 27 29 31 33 34 35 36 38 41 42 43 44 46 48 50 51 52 53 53 54 54 55 55 54 52 51 50 49 47 45 43 41 40 40 41 41 41 44 42 44 43 42 40 39
25 25 26 30 32 31 32 35 38 37 35 36 39 40 42 43 45 46 49 52 54 56 58 59 60 60 59 59 59 58 57 55 54 52 51 49 47 44 42 41 41 41 42 47 44 46 45 43 42
27 30 28 29 34 35 35 36 38 39 39 37 35 36 41 45 47 49 50 51 54 57 59 61 64 64 64 64 63 63 62 60 58 58 56 54 53 50 47 44 42 41 40 41 46 51 49 49 46
28 29 32 33 32 32 36 36 36 38 40 42 43 44 46 48 51 53 55 57 58 58 60 62 64 65 67 69 69 67 66 65 64 62 61 59 58 55 53 51 48 42 45 44 42 49 55 50 49
34 34 36 32 33 35 39 39 41 42 43 45 49 52 55 55 56 58 58 60 62 63 63 64 66 67 68 70 72 73 72 69 68 67 65 63 62 61 59 57 55 50 47 49 50 57 52 57 52
37 38 38 37 35 36 39 40 41 45 47 52 56 60 63 63 63 63 63 62 63 65 66 69 69 70 71 72 74 76 76 76 74 71 69 67 66 65 64 62 61 58 56 44 54 56 56 61 54
35 36 38 40 40 41 42 46 49 53 56 58 60 62 60 63 67 68 68 69 69 70 69 71 74 75 76 77 79 80 80 79 79 77 75 73 70 69 68 67 66 65 63 63 64 54 45 49 45
38 39 42 45 47 48 49 54 56 60 62 65 67 69 72 75 74 75 76 77 77 78 78 79 78 80 81 81 84 86 86 83 80 80 80 78 76 74 73 71 70 70 69 67 64 64 45 45 51
41 43 44 47 48 50 51 56 59 63 64 67 70 72 78 78 79 81 83 85 85 86 87 88 87 85 86 87 85 87 90 88 83 80 81 82 80 79 77 76 75 75 75 73 68 68 67 41 41
42 42 44 46 48 51 53 57 61 65 67 70 73 76 81 83 85 87 90 91 92 92 92 92 92 89 87 88 92 91 89 91 89 84 82 82 82 81 81 80 79 79 79 79 73 73 55 74 46
43 45 45 47 50 54 56 60 66 68 71 74 78 83 86 89 91 95 97 98 98 97 95 92 91 92 91 88 89 93 94 94 92 89 85 83 83 84 82 83 83 82 83 83 79 76 70 70 65
43 44 47 50 54 58 60 63 68 71 75 78 84 89 90 93 93 92 92 92 88 86 85 83 82 82 83 86 87 90 93 96 96 93 90 86 85 86 85 84 86 86 86 86 84 81 73 72 68
43 47 50 53 58 62 62 66 72 74 78 84 89 91 91 89 87 86 81 75 68 63 60 59 58 58 60 66 73 80 87 93 95 98 93 88 88 88 88 87 87 88 89 89 87 84 79 76 76
48 50 53 57 60 61 67 73 74 79 82 88 91 89 87 81 78 69 62 55 51 49 48 48 47 47 46 47 52 59 69 81 91 93 99 93 89 90 90 90 90 90 91 91 91 88 84 81 77
50 52 56 60 63 67 72 74 78 81 87 89 87 86 77 71 57 54 50 48 47 47 47 48 47 46 45 44 44 46 49 59 73 86 90 97 91 91 91 92 93 93 92 93 94 92 88 87 81
52 55 60 63 66 71 75 79 82 86 87 86 83 74 64 51 47 45 47 45 45 46 46 47 44 42 42 43 46 47 48 50 54 63 79 86 94 90 91 93 96 96 95 95 95 95 93 91 86
54 57 60 66 69 72 76 81 83 85 85 81 72 59 47 43 43 44 45 44 44 45 45 45 45 46 48 49 47 46 48 49 52 55 58 68 79 91 91 93 96 98 99 98 97 98 97 95 88
57 59 63 68 71 75 78 82 84 81 80 72 63 47 40 41 39 40 42 44 44 45 46 47 48 48 49 49 47 46 46 46 49 53 54 57 64 72 85 93 94 98 101 101 100 100 100 98 93
58 61 66 70 73 77 81 84 81 81 77 68 52 37 39 36 39 40 42 44 47 48 48 50 50 49 47 47 46 46 46 45 43 49 51 53 55 61 69 83 95 98 101 104 103 102 102 101 96
60 64 67 70 75 79 83 85 77 75 71 59 40 38 38 37 40 43 45 48 50 49 48 48 49 49 47 45 44 44 45 44 42 42 48 50 51 54 58 67 80 97 101 104 105 104 104 103 100
62 65 68 71 74 81 82 84 72 70 66 47 38 38 37 40 43 45 47 48 47 47 49 50 50 49 48 44 42 42 42 42 41 41 43 46 48 50 52 56 65 78 98 103 106 106 105 105 104
Wind_Direction
350 360 12 346 292 272 265 233 226 290 293 259 266 276 277 269 273 275 278 273 261 266 260 256 253 257 265 262 271 271 265 257 249 249 246 248 249 247 245 241 240 238 236 235 233 233 237 243 242
330 334 336 330 321 336 4 321 238 231 241 262 261 268 267 277 278 274 279 272 268 262 266 267 265 262 263 270 267 269 274 264 261 257 253 249 250 248 245 243 244 243 241 238 234 235 240 246 245
324 323 323 317 313 321 329 312 310 307 303 306 307 294 291 283 277 280 270 266 266 260 263 265 268 270 267 265 266 265 273 276 272 262 258 251 251 251 243 240 241 243 245 244 241 236 240 245 245
308 309 310 306 306 315 314 306 317 319 309 308 301 300 299 297 289 281 279 279 277 274 274 266 258 259 261 261 264 261 255 265 273 275 264 263 252 250 251 247 239 242 241 243 244 240 239 242 243
296 296 297 296 300 309 303 312 309 308 302 293 287 285 284 281 279 284 282 278 278 276 273 270 271 265 261 260 259 260 257 255 255 263 270 268 264 257 254 249 241 240 240 240 241 242 242 241 242
286 285 291 293 290 286 288 295 295 291 288 289 288 286 287 286 283 280 274 272 273 274 273 272 269 266 266 261 256 257 258 258 259 262 263 260 263 262 260 256 250 244 244 242 240 241 242 244 240
292 287 288 290 287 288 285 291 291 289 290 289 283 285 286 289 285 283 282 281 279 275 272 271 268 266 265 267 265 258 253 254 254 253 255 257 257 262 261 260 258 252 247 246 245 244 245 244 244
286 281 278 283 297 293 288 281 284 295 296 294 295 292 287 285 283 280 279 278 277 277 277 276 272 269 266 264 264 263 262 258 255 254 252 252 252 252 254 258 256 255 251 249 250 247 245 247 246
282 281 289 290 297 299 297 295 291 289 290 289 291 290 286 280 278 278 278 277 276 275 273 272 273 273 270 266 264 263 260 259 257 255 253 251 251 251 250 250 253 254 254 250 249 248 246 244 245
293 290 287 287 284 285 289 288 283 285 289 289 286 286 286 284 281 279 277 275 273 273 272 271 270 269 269 269 267 263 261 259 256 256 254 253 252 250 250 250 251 250 250 252 249 249 247 245 245
301 296 296 294 295 297 295 294 293 293 290 287 288 288 287 285 284 282 280 279 276 273 270 270 269 269 268 267 266 264 262 259 258 255 254 253 252 252 248 248 249 251 251 248 248 247 247 244 242
306 303 302 299 303 300 298 293 290 293 295 292 289 288 288 289 287 286 282 279 276 276 275 272 270 268 266 265 265 264 262 260 256 254 253 252 251 250 249 247 247 252 253 254 251 248 246 242 240
309 306 306 306 304 301 298 295 293 293 292 292 290 290 289 288 288 286 284 282 279 277 275 274 273 271 269 267 263 262 260 259 257 255 252 250 250 249 248 248 248 249 247 252 257 251 248 244 240
308 308 307 305 298 296 295 295 297 296 294 292 292 294 294 293 291 288 284 282 280 278 276 273 272 271 270 268 267 264 260 258 256 254 252 250 248 247 247 247 247 246 251 248 243 255 247 244 240
310 308 306 304 304 302 298 300 299 298 298 298 300 299 296 295 294 291 289 285 280 276 275 274 271 267 265 265 265 263 261 260 256 253 251 249 247 246 245 245 246 246 246 246 245 247 235 243 241
310 306 303 302 302 301 301 300 301 303 301 300 299 300 299 299 296 294 292 288 285 280 274 268 267 265 262 259 258 259 260 257 256 254 251 248 245 245 243 243 243 245 244 245 248 255 254 245 247
306 305 301 301 302 300 302 301 302 300 304 306 307 305 301 296 295 294 291 288 284 281 277 274 268 264 263 259 256 256 257 259 254 252 252 249 247 243 243 242 241 242 243 244 243 249 251 241 245
311 307 305 301 300 300 302 301 304 305 306 305 303 301 297 297 295 294 291 288 284 281 278 274 270 265 260 259 258 256 255 257 256 252 249 249 246 244 241 240 240 240 242 241 241 238 244 233 245
308 305 304 304 306 305 307 307 306 307 308 305 302 300 299 298 297 295 292 290 288 284 280 277 274 269 263 257 255 254 252 254 254 252 250 246 246 244 242 240 238 239 240 241 240 240 237 250 244
310 308 305 304 307 308 311 311 310 309 308 306 304 302 301 301 299 296 293 290 288 284 281 277 274 270 266 260 254 252 252 250 251 250 248 246 243 243 241 239 238 237 238 240 239 239 235 241 246
311 307 307 308 309 311 312 311 310 310 309 307 304 304 303 301 298 296 294 291 291 288 284 281 278 274 268 263 257 252 250 249 247 248 247 243 242 240 240 238 237 237 236 238 240 238 237 237 238
311 309 309 310 312 312 312 311 313 310 310 308 306 306 304 302 300 298 295 295 292 290 289 288 284 279 274 268 262 256 249 247 248 245 245 243 240 238 237 237 236 235 236 236 238 239 236 234 235
311 311 312 313 312 312 314 314 312 312 311 308 307 308 305 304 301 299 296 297 296 296 294 292 289 287 282 275 271 264 256 249 246 245 245 242 240 238 236 235 235 234 234 235 237 237 235 237 231
312 313 314 313 315 316 316 314 312 313 311 310 310 309 309 306 301 299 301 301 301 299 296 294 293 290 287 283 275 271 264 256 251 246 243 244 240 237 235 233 233 234 232 233 235 236 235 233 232
315 315 317 316 317 317 317 314 316 316 315 313 314 314 310 303 301 304 302 303 302 300 298 296 291 288 288 288 285 279 270 261 255 251 247 243 243 237 234 232 231 232 232 231 232 234 235 234 232
316 317 319 317 318 317 317 318 319 317 316 317 315 312 303 301 306 305 305 306 305 305 302 298 292 288 287 288 286 283 275 269 259 254 249 248 244 243 235 232 231 230 232 231 230 231 233 235 231
318 318 318 316 317 318 318 319 317 318 315 315 317 310 302 304 306 308 309 308 305 303 301 298 294 290 288 286 283 280 280 275 262 253 251 248 246 243 243 232 231 229 230 231 230 230 231 232 232
317 319 320 319 320 319 321 319 321 318 318 318 318 305 302 308 310 310 310 311 310 308 305 302 297 293 288 283 281 278 277 276 270 253 250 248 246 245 241 240 231 229 229 230 230 229 230 230 231
319 319 319 320 320 319 321 320 321 318 318 322 313 303 307 312 312 318 317 314 313 313 311 308 304 298 293 287 281 276 273 273 270 259 250 248 247 246 244 240 238 230 229 228 229 230 229 230 229
319 322 321 321 322 321 320 326 320 319 322 321 310 309 315 319 319 317 316 316 320 320 315 311 307 302 295 288 282 276 271 269 268 264 256 251 249 248 245 244 239 236 230 229 228 229 229 229 228